Date String (YYYY-MM-DD hh:mm:ss) UTC,Instrument flags,Ambient pressure (hPa),Sample flow (lpm),Bypass flow (lpm),Sample temperature (°C),Ambient temperature (°C),ASC tube jacket temperature (°C),LED temperature (°C),Box temperature (°C),Sample RH (%),Span deviation,Mass concentration (μg/m³),Mass concentration (μg/m³),Mass concentration (μg/m³)
DateTimeUTC,F1_M11,P_M11,Q1_M11,Q2_M11,T1_M11,T2_M11,T3_M11,T4_M11,T5_M11,U1_M11,ZSPAN_M11,X0_M11,X2_M11,X1_M11
2021-10-17 15:00:00,,0830.9,5.01,0.00,27.6,26.8,00.0,36.6,29.5,11.3,0000.0,0009.73,0003.81,0003.26
2021-10-17 15:01:00,,0830.9,4.99,0.00,27.7,26.8,00.0,36.6,29.5,11.4,0000.0,0009.60,0003.79,0003.25
2021-10-17 15:02:00,,0830.9,5.00,0.00,27.7,26.9,00.0,36.6,29.5,11.2,0000.0,0010.59,0003.77,0003.23
2021-10-17 15:03:00,,0831.0,5.00,0.00,27.7,26.9,00.0,36.7,29.6,11.2,0000.0,0010.73,0003.77,0003.21
2021-10-17 15:04:00,,0831.0,4.99,0.00,27.7,26.9,00.0,36.7,29.6,11.3,0000.0,0010.76,0003.73,0003.18
2021-10-17 15:05:00,,0831.0,5.00,0.00,27.7,26.9,00.0,36.7,29.6,11.4,0000.0,0010.82,0003.73,0003.16
2021-10-17 15:06:00,,0831.0,5.00,0.00,27.7,26.9,00.0,36.7,29.6,11.2,0000.0,0010.79,0003.75,0003.15
2021-10-17 15:07:00,,0831.0,5.00,0.00,27.7,27.0,00.0,36.7,29.6,11.2,0000.0,0010.16,0003.73,0003.14
2021-10-17 15:08:00,,0830.9,4.99,0.00,27.8,27.0,00.0,36.7,29.6,11.2,0000.0,0008.88,0003.65,0003.13
2021-10-17 15:09:00,,0830.9,5.00,0.00,27.8,27.0,00.0,36.7,29.7,11.3,0000.0,0008.52,0003.61,0003.12
2021-10-17 15:10:00,,0830.9,5.01,0.00,27.8,27.0,00.0,36.8,29.7,11.3,0000.0,0008.79,0003.62,0003.10
2021-10-17 15:11:00,,0830.9,5.00,0.00,27.8,27.0,00.0,36.8,29.7,11.3,0000.0,0009.21,0003.65,0003.07
2021-10-17 15:12:00,,0830.9,5.00,0.00,27.8,27.0,00.0,36.8,29.7,11.2,0000.0,0009.33,0003.65,0003.05
2021-10-17 15:13:00,,0830.9,5.00,0.00,27.8,27.1,00.0,36.8,29.7,11.2,0000.0,0008.23,0003.66,0003.05
2021-10-17 15:14:00,,0830.9,5.00,0.00,27.8,27.1,00.0,36.8,29.8,11.3,0000.0,0007.94,0003.63,0003.04
2021-10-17 15:15:00,,0830.8,5.01,0.00,27.9,27.1,00.0,36.8,29.8,11.3,0000.0,0007.72,0003.59,0003.03
2021-10-17 15:16:00,,0830.8,4.99,0.00,27.9,27.1,00.0,36.8,29.8,11.3,0000.0,0007.69,0003.57,0003.01
2021-10-17 15:17:00,,0830.8,5.01,0.00,27.9,27.2,00.0,36.9,29.8,11.4,0000.0,0007.61,0003.55,0002.98
2021-10-17 15:18:00,,0830.8,4.99,0.00,27.9,27.2,00.0,36.9,29.8,11.2,0000.0,0007.74,0003.57,0002.98
2021-10-17 15:19:00,,0830.8,4.99,0.00,27.9,27.2,00.0,36.9,29.8,10.8,0000.0,0007.91,0003.61,0002.98
2021-10-17 15:20:00,,0830.7,5.01,0.00,28.0,27.2,00.0,36.9,29.8,10.9,0000.0,0008.05,0003.63,0002.98
2021-10-17 15:21:00,,0830.8,5.01,0.00,28.0,27.2,00.0,36.9,29.9,11.0,0000.0,0007.55,0003.58,0002.98
2021-10-17 15:22:00,,0830.8,5.00,0.00,28.0,27.3,00.0,36.9,29.9,10.9,0000.0,0006.88,0003.55,0002.98
2021-10-17 15:23:00,,0830.8,4.99,0.00,28.0,27.3,00.0,36.9,29.9,10.9,0000.0,0006.52,0003.54,0003.00
2021-10-17 15:24:00,,0830.8,5.00,0.00,28.0,27.3,00.0,37.0,29.9,10.9,0000.0,0006.42,0003.53,0003.00
2021-10-17 15:25:00,,0830.8,5.00,0.00,28.0,27.3,00.0,37.0,29.9,10.9,0000.0,0006.46,0003.54,0003.00
2021-10-17 15:26:00,,0830.8,5.00,0.00,28.1,27.3,00.0,37.0,30.0,10.8,0000.0,0006.59,0003.57,0003.02
2021-10-17 15:27:00,,0830.8,5.00,0.00,28.1,27.4,00.0,37.0,30.0,11.0,0000.0,0006.73,0003.62,0003.03
2021-10-17 15:28:00,,0830.8,4.99,0.00,28.1,27.4,00.0,37.1,30.0,11.0,0000.0,0006.96,0003.62,0003.02
2021-10-17 15:29:00,,0830.7,5.00,0.00,28.1,27.4,00.0,37.1,30.0,11.4,0000.0,0006.71,0003.58,0003.00
2021-10-17 15:30:00,,0830.8,4.99,0.00,28.1,27.4,00.0,37.1,30.0,12.0,0000.0,0006.56,0003.55,0002.96
2021-10-17 15:31:00,,0830.8,5.00,0.00,28.2,27.4,00.0,37.1,30.1,11.7,0000.0,0006.25,0003.51,0002.93
2021-10-17 15:32:00,,0830.7,4.99,0.00,28.2,27.4,00.0,37.1,30.1,11.5,0000.0,0006.34,0003.52,0002.90
2021-10-17 15:33:00,,0830.8,5.01,0.00,28.2,27.5,00.0,37.1,30.1,11.4,0000.0,0007.39,0003.51,0002.87
2021-10-17 15:34:00,,0830.8,5.00,0.00,28.2,27.5,00.0,37.2,30.1,11.6,0000.0,0007.42,0003.50,0002.83
2021-10-17 15:35:00,,0830.8,4.99,0.00,28.2,27.5,00.0,37.2,30.2,11.4,0000.0,0007.49,0003.50,0002.81
2021-10-17 15:36:00,,0830.8,5.01,0.00,28.3,27.5,00.0,37.2,30.2,11.7,0000.0,0007.51,0003.49,0002.79
2021-10-17 15:37:00,,0830.7,5.00,0.00,28.3,27.6,00.0,37.2,30.2,11.6,0000.0,0007.57,0003.46,0002.73
2021-10-17 15:38:00,,0830.7,5.00,0.00,28.3,27.6,00.0,37.2,30.2,11.6,0000.0,0008.12,0003.45,0002.70
2021-10-17 15:39:00,,0830.7,4.99,0.00,28.3,27.6,00.0,37.3,30.2,11.8,0000.0,0008.29,0003.44,0002.70
2021-10-17 15:40:00,,0830.7,5.01,0.00,28.3,27.6,00.0,37.3,30.2,12.1,0000.0,0008.77,0003.45,0002.70
2021-10-17 15:41:00,,0830.7,4.99,0.00,28.4,27.6,00.0,37.3,30.2,12.1,0000.0,0009.04,0003.45,0002.70
2021-10-17 15:42:00,,0830.7,5.01,0.00,28.4,27.6,00.0,37.3,30.3,12.1,0000.0,0009.39,0003.46,0002.69
2021-10-17 15:43:00,,0830.6,5.01,0.00,28.4,27.7,00.0,37.3,30.3,11.8,0000.0,0009.65,0003.45,0002.68
2021-10-17 15:44:00,,0830.7,4.99,0.00,28.4,27.7,00.0,37.4,30.3,11.6,0000.0,0009.02,0003.42,0002.65
2021-10-17 15:45:00,,0830.6,5.00,0.00,28.4,27.7,00.0,37.4,30.3,11.4,0000.0,0008.99,0003.37,0002.63
2021-10-17 15:46:00,,0830.6,5.00,0.00,28.5,27.7,00.0,37.4,30.3,11.4,0000.0,0009.02,0003.36,0002.61
2021-10-17 15:47:00,,0830.6,5.00,0.00,28.5,27.7,00.0,37.4,30.4,11.4,0000.0,0009.06,0003.34,0002.60
2021-10-17 15:48:00,,0830.6,5.01,0.00,28.5,27.7,00.0,37.4,30.4,11.3,0000.0,0008.97,0003.35,0002.60
2021-10-17 15:49:00,,0830.6,4.99,0.00,28.5,27.7,00.0,37.4,30.4,11.2,0000.0,0008.29,0003.32,0002.57
2021-10-17 15:50:00,,0830.6,5.01,0.00,28.5,27.8,00.0,37.5,30.4,11.2,0000.0,0008.00,0003.31,0002.54
2021-10-17 15:51:00,,0830.6,5.00,0.00,28.6,27.8,00.0,37.5,30.4,11.2,0000.0,0008.04,0003.33,0002.53
2021-10-17 15:52:00,,0830.5,5.00,0.00,28.6,27.8,00.0,37.5,30.4,11.2,0000.0,0008.31,0003.36,0002.52
2021-10-17 15:53:00,,0830.6,4.99,0.00,28.6,27.8,00.0,37.5,30.5,11.2,0000.0,0007.94,0003.35,0002.50
2021-10-17 15:54:00,,0830.6,5.00,0.00,28.6,27.8,00.0,37.5,30.5,11.1,0000.0,0007.68,0003.34,0002.48
2021-10-17 15:55:00,,0830.5,5.00,0.00,28.6,27.9,00.0,37.6,30.5,11.2,0000.0,0008.30,0003.36,0002.48
2021-10-17 15:56:00,,0830.6,5.00,0.00,28.6,27.9,00.0,37.6,30.5,11.2,0000.0,0008.97,0003.37,0002.47
2021-10-17 15:57:00,,0830.6,5.00,0.00,28.7,27.9,00.0,37.6,30.5,11.2,0000.0,0009.04,0003.34,0002.47
2021-10-17 15:58:00,,0830.5,5.00,0.00,28.7,27.9,00.0,37.6,30.6,11.1,0000.0,0008.89,0003.33,0002.46
2021-10-17 15:59:00,,0830.5,4.99,0.00,28.7,27.9,00.0,37.6,30.6,11.2,0000.0,0008.93,0003.31,0002.43
